Location: Pagani
(40.7500°N, 14.6167°E)
Time: 07:55:21
(UTC+00:00)

Cosmos 372 Rocket - Pass Details

Date: 15 May 2026
Orbit: 734 x 761 km, 74.1° (Epoch: 6 June)

Event Time Altitude Azimuth Distance (km) Brightness Sun altitude
Rises 21:58:46 0° 340° (NNW) 3,184 8.4 -28.7°
Reaches altitude 10° 22:01:07 10° 340° (NNW) 2,253 7.4 -28.8°
Enters shadow 22:05:24 63° 336° (NNW) 819 4.2 -29.0°
